Location: ???????
(52.3000°N, 54.4667°E)
Time: 09:14:08
(UTC+00:00)

Cosmos 1603 - Pass Details

Date: 24 January 2020
Orbit: 831 x 859 km, 71.0° (Epoch: 16 February)

Event Time Altitude Azimuth Distance (km) Brightness Sun altitude
Rises 15:52:17 0° 328° (NNW) 3,427 7.3 -27.0°
Reaches altitude 10° 15:54:46 10° 326° (NW) 2,484 6.6 -27.4°
Maximum altitude 16:00:25 71° 244° (WSW) 894 3.8 -28.2°
Enters shadow 16:01:19 60° 191° (S) 963 3.9 -28.4°
